Conestee, SC

9:49 AM EST on February 06, 2016 (GMT -0500)
Donaldson Center

Weather History for KGYH - May, 2013

Change the Weather History Date:

Thursday, May 16, 2013

  Actual Average (KGSP) Record (KGSP)
Temperature  
Mean Temperature 68 °F 69 °F  
Max Temperature 80 °F 80 °F 93 °F (1962)
Min Temperature 57 °F 57 °F 42 °F (1978)
Degree Days  
Heating Degree Days 0 1  
Month to date heating degree days 29  
Since 1 July heating degree days 3035  
Cooling Degree Days 4 5  
Month to date cooling degree days 55  
Year to date cooling degree days 103  
Growing Degree Days 18 (Base 50)    
Moisture  
Dew Point 58 °F    
Average Humidity 70    
Maximum Humidity 94    
Minimum Humidity 45    
Precipitation  
Precipitation 0.00 in 0.12 in 1.72 in (1922)
Month to date precipitation 1.94  
Year to date precipitation 17.61  
Snow  
Snow 0.00 in 0.00 in 0.00 in ()
Month to date snowfall 0.0  
Since 1 July snowfall 4.7  
Snow Depth -    
Sea Level Pressure  
Sea Level Pressure 30.02 in    
Wind  
Wind Speed 4 mph (WSW)    
Max Wind Speed 10 mph    
Max Gust Speed 17 mph    
Visibility 10 miles    
Events      
T = Trace of Precipitation, MM = Missing Value Source: NWS Daily Summary

Daily Weather History Graph

Daily Weather History Graph

Search for Another Location

Airport or City:

Trip Planner

Search our weather history database for the weather conditions in past years. The results will help you decide how hot, cold, wet, or windy it might be!

Date:

Astronomy

May. 16, 2013 Rise Set
Actual Time 6:25 AM EDT 8:26 PM EDT
Civil Twilight 5:57 AM EDT 8:54 PM EDT
Nautical Twilight 5:23 AM EDT 9:28 PM EDT
Astronomical Twilight 4:46 AM EDT 10:05 PM EDT
Moon 11:53 AM EDT (5/16) 12:50 AM EDT (5/16)
Length of Visible Light 14h 57m
Length of Day
14h 01m
Waxing Crescent, 35% of the Moon is Illuminated
May 16
Waxing Crescent
May 18
First Quarter
May 25
Full
May 31
Last Quarter
Jun 8
New

Hourly Weather History & Observations

Time (EDT) Temp. Heat Index Dew Point Humidity Pressure Visibility Wind Dir Wind Speed Gust Speed Precip Events Conditions
12:15 AM 69.8 °F - 55.4 °F 60% 30.02 in 10.0 mi West 5.8 mph - N/A   Clear
12:35 AM 69.8 °F - 55.4 °F 60% 30.02 in 10.0 mi West 4.6 mph - N/A   Clear
12:55 AM 68.0 °F - 55.4 °F 64% 30.02 in 10.0 mi West 6.9 mph - N/A   Clear
1:15 AM 68.0 °F - 55.4 °F 64% 30.02 in 10.0 mi West 5.8 mph - N/A   Clear
1:35 AM 68.0 °F - 55.4 °F 64% 30.01 in 10.0 mi West 5.8 mph - N/A   Clear
1:55 AM 69.8 °F - 55.4 °F 60% 30.01 in 10.0 mi West 5.8 mph - N/A   Clear
2:15 AM 69.8 °F - 53.6 °F 56% 30.00 in 10.0 mi WNW 5.8 mph - N/A   Clear
2:35 AM 68.0 °F - 55.4 °F 64% 30.00 in 10.0 mi West 3.5 mph - N/A   Clear
2:55 AM 60.8 °F - 55.4 °F 82% 30.00 in 10.0 mi WSW 5.8 mph - N/A   Clear
3:15 AM 64.4 °F - 55.4 °F 73% 30.00 in 10.0 mi Calm Calm - N/A   Clear
3:35 AM 60.8 °F - 53.6 °F 77% 30.00 in 10.0 mi West 3.5 mph - N/A   Clear
3:55 AM 60.8 °F - 55.4 °F 82% 30.00 in 7.0 mi Calm Calm - N/A   Clear
4:15 AM 59.0 °F - 55.4 °F 88% 30.00 in 10.0 mi West 3.5 mph - N/A   Clear
4:35 AM 60.8 °F - 55.4 °F 82% 30.00 in 10.0 mi Calm Calm - N/A   Clear
4:55 AM 62.6 °F - 55.4 °F 77% 30.00 in 10.0 mi Calm Calm - N/A   Clear
5:15 AM 60.8 °F - 55.4 °F 82% 30.00 in 10.0 mi Calm Calm - N/A   Clear
5:35 AM 62.6 °F - 55.4 °F 77% 30.00 in 10.0 mi Calm Calm - N/A   Clear
5:55 AM 62.6 °F - 55.4 °F 77% 30.01 in 10.0 mi WNW 3.5 mph - N/A   Clear
6:15 AM 59.0 °F - 53.6 °F 82% 30.01 in 10.0 mi Calm Calm - N/A   Clear
6:35 AM 57.2 °F - 53.6 °F 88% 30.02 in 10.0 mi Calm Calm - N/A   Clear
6:47 AM 57.2 °F - 55.4 °F 94% 30.02 in 10.0 mi Calm Calm - N/A   Clear
7:47 AM 64.4 °F - 57.2 °F 77% 30.04 in 10.0 mi WNW 3.5 mph - N/A   Clear
8:47 AM 68.0 °F - 62.6 °F 83% 30.06 in 10.0 mi West 5.8 mph - N/A   Clear
9:49 AM 75.2 °F - 59.0 °F 57% 30.06 in 10.0 mi West 6.9 mph - N/A   Clear
10:50 AM 78.8 °F - 59.0 °F 51% 30.07 in 10.0 mi WSW 5.8 mph - N/A   Clear
11:47 AM 77.0 °F - 60.8 °F 57% 30.07 in 10.0 mi WSW 6.9 mph - N/A   Clear
12:47 PM 78.8 °F - 60.8 °F 54% 30.06 in 10.0 mi SW 10.4 mph - N/A   Clear
1:47 PM 75.2 °F - 59.0 °F 57% 30.05 in 10.0 mi WSW 5.8 mph - N/A   Clear
3:47 PM 77.0 °F - 60.8 °F 57% 30.03 in 10.0 mi WSW 9.2 mph - N/A   Clear
4:47 PM 80.6 °F 82.3 °F 64.4 °F 58% 30.01 in 10.0 mi SW 5.8 mph - N/A   Clear
6:47 PM 80.6 °F 80.8 °F 57.2 °F 45% 30.00 in 10.0 mi WSW 8.1 mph 17.3 mph N/A   Clear
7:47 PM 77.0 °F - 60.8 °F 57% 30.00 in 10.0 mi SW 6.9 mph - N/A   Clear
8:47 PM 71.6 °F - 60.8 °F 69% 30.01 in 10.0 mi SW 3.5 mph - N/A   Clear
9:15 PM 71.6 °F - 59.0 °F 64% 30.03 in 10.0 mi Calm Calm - N/A   Clear
9:35 PM 69.8 °F - 60.8 °F 73% 30.03 in 10.0 mi Calm Calm - N/A   Clear
9:55 PM 69.8 °F - 60.8 °F 73% 30.04 in 7.0 mi Calm Calm - N/A   Clear
10:15 PM 69.8 °F - 60.8 °F 73% 30.05 in 10.0 mi SW 3.5 mph - N/A   Clear
10:35 PM 68.0 °F - 60.8 °F 78% 30.05 in 10.0 mi SW 4.6 mph - N/A   Clear
10:55 PM 68.0 °F - 60.8 °F 78% 30.05 in 10.0 mi SW 4.6 mph - N/A   Clear
11:15 PM 68.0 °F - 60.8 °F 78% 30.05 in 10.0 mi WSW 3.5 mph - N/A   Clear
11:35 PM 66.2 °F - 60.8 °F 83% 30.05 in 10.0 mi WSW 3.5 mph - N/A   Clear
11:55 PM 68.0 °F - 60.8 °F 78% 30.05 in 10.0 mi Calm Calm - N/A   Clear